Location: Bois de la Silve
(44.4667°N, 6.7833°E)
Time: 10:29:18
(UTC+00:00)

Okean 1-7 - Pass Details

Date: 14 July 2020
Orbit: 592 x 618 km, 82.5° (Epoch: 05 August)

Event Time Altitude Azimuth Distance (km) Brightness Sun altitude
Rises 01:12:21 0° 347° (NNW) 2,903 7.4 -20.5°
Reaches altitude 10° 01:14:37 10° 344° (NNW) 1,992 6.3 -20.4°
Maximum altitude 01:18:57 60° 266° (W) 713 3.1 -20.1°
Enters shadow 01:19:45 50° 220° (SW) 791 3.2 -20.0°
